Weather History for Roatan, Honduras

Change the Weather History Date:

Friday, January 17, 2014

  Actual Average Record
Temperature  
Mean Temperature 68 °F -  
Max Temperature 75 °F 82 °F 87 °F (1998)
Min Temperature 60 °F 73 °F 60 °F (2014)
Cooling Degree Days 2    
Growing Degree Days 18 (Base 50)    
Moisture  
Dew Point 63 °F    
Average Humidity 73    
Maximum Humidity 94    
Minimum Humidity 48    
Precipitation  
Precipitation 0.03 in - - ()
Sea Level Pressure  
Sea Level Pressure 30.06 in    
Wind  
Wind Speed 5 mph ()    
Max Wind Speed 10 mph    
Max Gust Speed -    
Visibility 5.4 miles    
Events Rain    
Averages and records for this station are not official NWS values.
T = Trace of Precipitation, MM = Missing Value Source: Averaged Metar Reports

Daily Weather History Graph

Daily Weather History Graph

Search for Another Location

Airport:

Trip Planner

Search our weather history database for the weather conditions in past years. The results will help you decide how hot, cold, wet, or windy it might be!

Date:

Astronomy

Jan. 17, 2014 Rise Set
Actual Time 6:17 AM CST 5:34 PM CST
Civil Twilight 5:54 AM CST 5:57 PM CST
Nautical Twilight 5:28 AM CST 6:24 PM CST
Astronomical Twilight 5:02 AM CST 6:50 PM CST
Moon 6:58 PM CST (1/17) 7:04 AM CST (1/17)
Length of Visible Light 12h 02m
Length of Day
11h 16m
Full, 98% of the Moon is Illuminated
Jan 17
Full
Jan 23
Last Quarter
Jan 30
New
Feb 6
First Quarter
Feb 14
Full

Hourly Weather History & Observations

Time (CST) Temp. Dew Point Humidity Pressure Visibility Wind Dir Wind Speed Gust Speed Precip Events Conditions
6:00 AM 72 °F 56 °F 48% 30.05 in 6 mi West 5.8 mph - -   Haze
6:00 AM 71.6 °F 57.2 °F 60% 30.04 in 6.2 mi West 5.8 mph - N/A   Mostly Cloudy
7:00 AM 71.6 °F 57.2 °F 60% 30.06 in 6.2 mi WNW 2.3 mph - N/A   Mostly Cloudy
8:00 AM 73.4 °F 57.2 °F 57% 30.09 in 6.2 mi NW 4.6 mph - N/A   Mostly Cloudy
9:00 AM 73 °F 61 °F 58% 30.12 in 9 mi NW 3.5 mph - -   Haze
9:00 AM 73.4 °F 60.8 °F 65% 30.09 in 6.2 mi NW 3.5 mph - N/A   Scattered Clouds
10:00 AM 73.4 °F 60.8 °F 65% 30.12 in 6.2 mi West 3.5 mph - N/A   Overcast
11:00 AM 71.6 °F 64.4 °F 78% 30.09 in 6.2 mi NW 3.5 mph - N/A   Overcast
12:00 PM - - %  in 6 mi NW 6.9 mph - -   Overcast
12:00 PM 73.4 °F 62.6 °F 69% 30.06 in 6.2 mi NW 6.9 mph - N/A   Overcast
1:00 PM 73.4 °F 62.6 °F 69% 30.04 in 6.2 mi West 8.1 mph - N/A   Mostly Cloudy
2:00 PM 69.8 °F 66.2 °F 88% 30.04 in 3.1 mi WSW 6.9 mph - N/A Rain Light Rain
3:00 PM 71 °F 66 °F 80% 30.02 in 6 mi West 10.4 mph - - Rain Light Rain
3:00 PM 71.6 °F 66.2 °F 83% 30.01 in 6.2 mi West 10.4 mph - N/A   Overcast
4:00 PM 71.6 °F 66.2 °F 83% 30.01 in 6.2 mi West 9.2 mph - N/A Rain Light Rain
5:00 PM 71.6 °F 66.2 °F 83% 30.04 in 6.2 mi West 8.1 mph - N/A   Overcast
6:00 PM 71 °F 66 °F 80% 30.06 in 3 mi West 6.9 mph - - Rain Light Rain
6:00 PM 69.8 °F 66.2 °F 88% 30.04 in 3.1 mi West 6.9 mph - N/A Rain Light Rain
7:00 PM 69.8 °F 68.0 °F 94% 30.06 in 3.1 mi WSW 8.1 mph - N/A Rain Rain
8:00 PM 71.6 °F 68.0 °F 88% 30.09 in 1.2 mi WNW 4.6 mph - N/A Rain Rain